STARLINK-34791

Satellite information

Favourite Embed

Satellite Type and Status

PAYLOADIN ORBIT

Key statistics

Satellite STARLINK-34791 at a glance.

Uptime

20

Days in orbit

Revolutions

≈ 15.6

Per day

Orbit

LEO

Low Earth Orbit

Inclination

53.2

Latest

Satellite identification and parameters

Extended collection of information and parameters for STARLINK-34791.

Object identification

Identified? True

Debris? False

Object name: STARLINK-34791

International designator: 2025-224K

Object number (NORAD): 65891

Object ID (CCSDS): 65891

Country: UNITED STATES OF AMERICA (US)

Current information (Y/N): Y

Orbital parameters

Period: 92.114 minutes

Inclination: 53.1593 deg

SMA: 6756.32 km

Apoapsis: 379.087 km

Periapsis: 377.282 km

RAAN: 275.2546 deg

Eccentricy: 0.00013353

Argument of periapsis: 91.8342 deg

Mean anomaly: 35.0021 deg

Mean motion: 15.63282558 rev/day

Mean motion (dot): -0.01995591 rev/day2

B* drag term: -0.024270057 1/REarth

Two-line elements (TLE)

Creation date: Oct. 27, 2025, 2:46 a.m.

Reference frame: TEME

Reference center: EARTH

Epoch: Oct. 26, 2025, 10 p.m. UTC

TLE line 0: 0 STARLINK-34791

TLE line 1: 1 65891U 25224K 25299.91670139 -.01995591 00000-0 -24270-1 0 9994

TLE line 2: 2 65891 53.1593 275.2546 0001335 91.8342 35.0021 15.63282558 4388

Live tracking on map

Real-time ground track for satellite STARLINK-34791.

In-orbit conjunctions

There are no conjunctions computed for STARLINK-34791, at the moment. Check back to stay up to date, as we update our databases every day.

Go to all conjunctions

Associated space launch

A batch of 28 satellites for the Starlink mega-constellation - SpaceX's project for space-based Internet communication system.

STARLINK-34791 was lifted into orbit during the mission ‘Falcon 9 Block 5 | Starlink Group 10-59’, on board a Falcon 9 space rocket.

The launch took place on Oct. 7, 2025, 6:46 a.m. from Space Launch Complex 40.

For more information about the launch, click the button.

Launch to space Falcon 9 Block 5 | Starlink Group 10-59
Falcon 9 Block 5 | Starlink Group 10-59

Agency: SpaceX

Status: Launch Successful

Launch date: Oct. 7, 2025, 6:46 a.m. UTC

Rocket: Falcon 9

Launch pad: Space Launch Complex 40

Location: Cape Canaveral SFS, FL, USA

...

Latest news about this satellite

News about space launch
Launch Roundup: Falcon 9 to launch five times, Blue Origin to launch crew

SpaceX is set to dominate the launch manifest for the first whole week of October… The post Launch Roundup: Falcon 9 to launch five times, Blue Origin to launch crew appeared first on NASASpaceFlight.com.

News about space launch
Live coverage: SpaceX to launch Falcon 9 rocket on 90th Starlink mission of 2025

The Starlink 10-59 mission will add 28 broadband internet satellites into the growing megaconstellation. SpaceX is targeting liftoff from pad 40 at Cape Canaveral Space Force Station during a launch window that opens at 12:10 a.m. EDT (0410 UTC).

News about space launch
Launch Roundup: Falcon 9 launches Starlink and Kuiper satellites

SpaceX is scheduled to launch up to three times this week, with each mission planned… The post Launch Roundup: Falcon 9 launches Starlink and Kuiper satellites appeared first on NASASpaceFlight.com.


Newsletter sign-up

Weekly statistics, charts and insights to help you stay on top of the space industry.